APSTAR 6E (55239 NORAD) Tracking and Keplerian Element Data

This shows tracking and keplerian element data for the satellite.

Feedback or suggestion? Click here.




ElementValue
Catalog55239
NameAPSTAR 6E
Epoch Orbit487
Epoch Day76.1856661
Epoch Year2023
RAAN281.84
Inclination28.7987
Eccentricity0.1605671
Argument of Perigee225.7959
Mean Anonmoly256.4884
Mean Motion5.25045054
Decay Rate-1.2E-07
L11 55239U 23005A 23076.18566610 -.00000012 00000+0 60921-2 0 9998
L22 55239 28.7987 281.8400 1605671 225.7959 256.4884 5.25045054 4871



Live tracking and technical data element details for APSTAR 6E (NORAD 55239). APSTAR 6E can be tracked NOW for your location showing map with azimuth and elevation plus other details from your city location.







IsCatalogInMostPopularTable: catalog: 55239, numindb: 13
Update: records affected: 1



GetName: 55239 APSTAR 6E

Hit Count: updated at: Mon, 27 Mar 2023 07:31:33 GMT